Stations météo

réclame
Mon MeteoGroup
Cozzo Spadaro, Italie (16480): Température de l'air & dewpoint: 07.12.2017 04:00:00 - 13.12.2017 04:00:00 (CET)Cozzo Spadaro, Italie (16480): Vitesse du vent: 07.12.2017 04:00:00 - 13.12.2017 04:00:00 (CET)Cozzo Spadaro, Italie (16480): Direction du vent: 07.12.2017 04:00:00 - 13.12.2017 04:00:00 (CET)Cozzo Spadaro, Italie (16480): reduced air pressure: 07.12.2017 04:00:00 - 13.12.2017 04:00:00 (CET)Cozzo Spadaro, Italie (16480): visibility: 07.12.2017 04:00:00 - 13.12.2017 04:00:00 (CET)Cozzo Spadaro, Italie (16480): Ensoleillement: 07.12.2017 04:00:00 - 13.12.2017 04:00:00 (CET)
Date & Time tt [°C] td [°C] ff [km/h] ff [knt] dd ppp [hPa] vv [km] sd [min]
13.12.2017 04:00:00 - - - - - - - -
13.12.2017 03:00:00 - - - - - - - -
13.12.2017 02:00:00 - - - - - - - -
13.12.2017 01:00:00 - - - - - - - -
13.12.2017 00:00:00 - - - - - - - -
12.12.2017 23:00:00 - - - - - - - -
12.12.2017 22:00:00 - - - - - - - -
12.12.2017 21:00:00 - - - - - - - -
12.12.2017 20:00:00 - - - - - - - -
12.12.2017 19:00:00 16,0 14,2 4 2 SSW 1020,1 12 -
12.12.2017 18:00:00 16,0 14,2 5 3 SSW 1019,6 15 -
12.12.2017 17:00:00 16,4 14,2 8 4 SW 1019,1 20 12
12.12.2017 16:00:00 18,0 15,1 13 7 SW 1019,0 20 60
12.12.2017 15:00:00 18,4 14,9 13 7 SW 1018,7 20 60
12.12.2017 14:00:00 18,6 14,3 13 7 SW 1019,0 25 60
12.12.2017 13:00:00 18,6 14,3 16 9 SW 1019,1 25 60
12.12.2017 12:00:00 18,4 14,1 15 8 SW 1019,1 25 60
12.12.2017 11:00:00 18,4 14,3 11 6 SW 1019,1 25 60
12.12.2017 10:00:00 18,0 14,5 11 6 SW 1019,1 25 60
12.12.2017 09:00:00 17,6 14,5 5 3 SSW 1018,5 25 60
12.12.2017 08:00:00 16,2 13,9 13 7 SW 1018,1 25 0
12.12.2017 07:00:00 15,8 13,5 15 8 SW 1018,1 20 0
12.12.2017 06:00:00 - - - - - - - -
12.12.2017 05:00:00 - - - - - - - -
12.12.2017 04:00:00 - - - - - - - -
12.12.2017 03:00:00 - - - - - - - -
12.12.2017 02:00:00 - - - - - - - -
12.12.2017 01:00:00 - - - - - - - -
12.12.2017 00:00:00 - - - - - - - -
11.12.2017 23:00:00 - - - - - - - -
11.12.2017 22:00:00 - - - - - - - -
11.12.2017 21:00:00 - - - - - - - -
11.12.2017 20:00:00 - - - - - - - -
11.12.2017 19:00:00 16,2 13,3 15 8 SW 1017,2 15 -
11.12.2017 18:00:00 16,2 13,7 15 8 SW 1017,0 15 -
11.12.2017 17:00:00 16,4 13,3 15 8 SW 1016,6 15 12
11.12.2017 16:00:00 17,4 13,3 16 9 SW 1016,3 20 60
11.12.2017 15:00:00 18,0 13,5 22 12 SW 1016,1 20 60
11.12.2017 14:00:00 18,0 13,7 18 10 SW 1016,9 20 42
11.12.2017 13:00:00 17,6 13,7 16 9 WSW 1017,8 15 30
11.12.2017 12:00:00 17,2 14,1 15 8 SW 1018,2 15 30
11.12.2017 11:00:00 16,4 13,3 15 8 SW 1018,9 15 0
11.12.2017 10:00:00 14,8 11,6 18 10 SW 1018,6 15 0
11.12.2017 09:00:00 13,6 10,6 11 6 SW 1018,5 12 0
11.12.2017 08:00:00 14,4 10,2 18 10 SW 1018,0 20 0
11.12.2017 07:00:00 14,0 10,0 13 7 SW 1018,0 25 0
11.12.2017 06:00:00 - - - - - - - -
11.12.2017 05:00:00 - - - - - - - -
11.12.2017 04:00:00 - - - - - - - -
11.12.2017 03:00:00 - - - - - - - -
11.12.2017 02:00:00 - - - - - - - -
11.12.2017 01:00:00 - - - - - - - -
11.12.2017 00:00:00 - - - - - - - -
10.12.2017 23:00:00 - - - - - - - -
10.12.2017 22:00:00 - - - - - - - -
10.12.2017 21:00:00 - - - - - - - -
10.12.2017 20:00:00 - - - - - - - -
10.12.2017 19:00:00 - - - - - - - -
10.12.2017 18:00:00 - - - - - - - -
10.12.2017 17:00:00 - - - - - - - -
10.12.2017 16:00:00 - - - - - - - -
10.12.2017 15:00:00 - - - - - - - -
10.12.2017 14:00:00 - - - - - - - -
10.12.2017 13:00:00 - - - - - - - -
10.12.2017 12:00:00 - - - - - - - -
10.12.2017 11:00:00 - - - - - - - -
10.12.2017 10:00:00 - - - - - - - -
10.12.2017 09:00:00 - - - - - - - -
10.12.2017 08:00:00 - - - - - - - -
10.12.2017 07:00:00 - - - - - - - -
10.12.2017 06:00:00 - - - - - - - -
10.12.2017 05:00:00 - - - - - - - -
10.12.2017 04:00:00 - - - - - - - -
10.12.2017 03:00:00 - - - - - - - -
10.12.2017 02:00:00 - - - - - - - -
10.12.2017 01:00:00 - - - - - - - -
10.12.2017 00:00:00 - - - - - - - -
09.12.2017 23:00:00 - - - - - - - -
09.12.2017 22:00:00 - - - - - - - -
09.12.2017 21:00:00 - - - - - - - -
09.12.2017 20:00:00 - - - - - - - -
09.12.2017 19:00:00 13,4 10,0 15 8 WNW 1016,2 15 -
09.12.2017 18:00:00 13,6 11,3 11 6 WNW 1015,9 15 -
09.12.2017 17:00:00 14,0 11,9 13 7 WNW 1015,4 10 0
09.12.2017 16:00:00 15,4 10,4 18 10 WNW 1015,2 25 36
09.12.2017 15:00:00 16,6 10,0 21 11 W 1015,1 25 60
09.12.2017 14:00:00 16,8 9,7 24 13 W 1015,8 25 60
09.12.2017 13:00:00 17,0 9,9 24 13 W 1016,1 25 60
09.12.2017 12:00:00 16,8 10,9 26 14 W 1017,1 25 60
09.12.2017 11:00:00 16,6 10,7 22 12 W 1017,7 25 60
09.12.2017 10:00:00 16,0 10,3 22 12 W 1018,1 25 60
09.12.2017 09:00:00 15,8 9,9 18 10 W 1018,2 25 60
09.12.2017 08:00:00 15,0 10,2 11 6 W 1018,4 25 6
09.12.2017 07:00:00 13,4 9,2 9 5 W 1018,7 25 0
09.12.2017 06:00:00 - - - - - - - -
09.12.2017 05:00:00 - - - - - - - -
09.12.2017 04:00:00 - - - - - - - -
09.12.2017 03:00:00 - - - - - - - -
09.12.2017 02:00:00 - - - - - - - -
09.12.2017 01:00:00 - - - - - - - -
09.12.2017 00:00:00 - - - - - - - -
08.12.2017 23:00:00 - - - - - - - -
08.12.2017 22:00:00 - - - - - - - -
08.12.2017 21:00:00 - - - - - - - -
08.12.2017 20:00:00 - - - - - - - -
08.12.2017 19:00:00 - - - - - - - -
08.12.2017 18:00:00 - - - - - - - -
08.12.2017 17:00:00 - - - - - - - -
08.12.2017 16:00:00 - - - - - - - -
08.12.2017 15:00:00 - - - - - - - -
08.12.2017 14:00:00 - - - - - - - -
08.12.2017 13:00:00 - - - - - - - -
08.12.2017 12:00:00 - - - - - - - -
08.12.2017 11:00:00 - - - - - - - -
08.12.2017 10:00:00 - - - - - - - -
08.12.2017 09:00:00 - - - - - - - -
08.12.2017 08:00:00 - - - - - - - -
08.12.2017 07:00:00 - - - - - - - -
08.12.2017 06:00:00 - - - - - - - -
08.12.2017 05:00:00 - - - - - - - -
08.12.2017 04:00:00 - - - - - - - -
08.12.2017 03:00:00 - - - - - - - -
08.12.2017 02:00:00 - - - - - - - -
08.12.2017 01:00:00 - - - - - - - -
08.12.2017 00:00:00 - - - - - - - -
07.12.2017 23:00:00 - - - - - - - -
07.12.2017 22:00:00 - - - - - - - -
07.12.2017 21:00:00 - - - - - - - -
07.12.2017 20:00:00 - - - - - - - -
07.12.2017 19:00:00 12,4 7,3 5 3 NW 1030,8 25 -
07.12.2017 18:00:00 12,8 8,1 0 0 N 1030,8 25 -
07.12.2017 17:00:00 14,0 9,0 0 0 N 1030,8 25 12
07.12.2017 16:00:00 16,4 9,8 2 1 SW 1030,9 25 60
07.12.2017 15:00:00 16,4 9,1 4 2 SSW 1031,0 25 60
07.12.2017 14:00:00 16,6 8,8 2 1 S 1031,1 25 60
07.12.2017 13:00:00 16,8 8,5 2 1 E 1031,7 25 60
07.12.2017 12:00:00 17,0 8,4 2 1 ENE 1032,2 25 60
07.12.2017 11:00:00 17,0 8,2 2 1 ESE 1032,7 25 60
07.12.2017 10:00:00 16,2 6,9 2 1 N 1032,7 25 60
07.12.2017 09:00:00 14,6 7,9 2 1 W 1032,3 25 -
07.12.2017 08:00:00 12,0 5,4 5 3 NW 1032,3 25 0
07.12.2017 07:00:00 11,0 5,1 2 1 WNW 1032,1 25 0
07.12.2017 06:00:00 - - - - - - - -
07.12.2017 05:00:00 - - - - - - - -
07.12.2017 04:00:00 - - - - - - - -

tt = Température de l'air
td = dewpoint
ff = Vitesse du vent
dd = Direction du vent
ppp = reduced air pressure
vv = visibility
sd = Ensoleillement

stations d'obs. à proximité